MAS720 WIII-WMKK

Flight info

Callsign MAS720
Flight time N/A
Altitude 38000
Route DOLTA A585 PKU/N0469F390 N633 SALAX SALAX1H
Aircraft A339/H-SADE1E2E3GHIJ3J5M1P2RWXY/LB2D1

Departure

Time 2026-05-04 13:00
Airport Soekarno-Hatta International Airport (WIII)

Arrival

Time N/A
Airport Kuala Lumpur International Airport (WMKK)
Time Latitude Longitude Altitude Speed Heading
2026-05-04 12:25 -6.11759 106.66464 44 ft 0 kts 158°
2026-05-04 12:46 -6.11756 106.66463 43 ft 2 kts 158°
2026-05-04 12:47 -6.11731 106.66453 42 ft 3 kts 158°
2026-05-04 12:47 -6.11706 106.66442 39 ft 3 kts 158°
2026-05-04 12:47 -6.11682 106.66432 40 ft 1 kts 158°
2026-05-04 12:47 -6.11665 106.66429 41 ft 3 kts 114°
2026-05-04 12:48 -6.11661 106.66414 38 ft 3 kts 68°
2026-05-04 12:48 -6.11672 106.66389 41 ft 3 kts 66°
2026-05-04 12:48 -6.11674 106.66385 42 ft 3 kts 67°
2026-05-04 12:48 -6.11677 106.66378 43 ft 0 kts 69°
2026-05-04 12:56 -6.11676 106.66379 44 ft 0 kts 66°
2026-05-04 12:56 -6.11668 106.66383 42 ft 5 kts 44°
2026-05-04 12:56 -6.11594 106.66394 44 ft 15 kts 355°
2026-05-04 12:57 -6.11500 106.66353 44 ft 17 kts 341°
2026-05-04 12:57 -6.11374 106.66310 44 ft 17 kts 352°
2026-05-04 12:57 -6.11309 106.66373 45 ft 14 kts 59°
2026-05-04 12:57 -6.11259 106.66479 45 ft 19 kts 68°
2026-05-04 12:58 -6.11204 106.66618 44 ft 23 kts 69°
2026-05-04 12:58 -6.11141 106.66782 44 ft 27 kts 68°
2026-05-04 12:58 -6.11076 106.66934 44 ft 15 kts 54°
2026-05-04 12:58 -6.11045 106.66961 44 ft 1 kts 34°
2026-05-04 12:59 -6.10986 106.66963 45 ft 19 kts 345°
2026-05-04 12:59 -6.10937 106.66860 44 ft 20 kts 273°
2026-05-04 12:59 -6.10986 106.66711 45 ft 23 kts 255°
2026-05-04 12:59 -6.11037 106.66553 45 ft 26 kts 249°
2026-05-04 13:00 -6.11126 106.66325 45 ft 66 kts 248°
2026-05-04 13:00 -6.11415 106.65606 44 ft 154 kts 248°
2026-05-04 13:00 -6.11906 106.64415 233 ft 202 kts 246°
2026-05-04 13:00 -6.12260 106.63049 1000 ft 205 kts 265°
2026-05-04 13:01 -6.12052 106.61606 1721 ft 217 kts 284°
2026-05-04 13:01 -6.11641 106.60164 2680 ft 208 kts 283°
2026-05-04 13:01 -6.11220 106.58753 3419 ft 218 kts 288°
2026-05-04 13:01 -6.10663 106.57276 3961 ft 235 kts 290°
2026-05-04 13:02 -6.10097 106.55703 4395 ft 256 kts 288°
2026-05-04 13:02 -6.09531 106.53905 4772 ft 276 kts 286°
2026-05-04 13:02 -6.09005 106.52051 5364 ft 282 kts 285°
2026-05-04 13:02 -6.08480 106.50144 6048 ft 285 kts 286°
2026-05-04 13:03 -6.07585 106.48377 6686 ft 287 kts 309°
2026-05-04 13:03 -6.06043 106.47072 7354 ft 287 kts 329°
2026-05-04 13:03 -6.04336 106.46054 7997 ft 291 kts 330°
2026-05-04 13:03 -6.02593 106.45009 8658 ft 294 kts 329°
2026-05-04 13:04 -6.00836 106.43936 9303 ft 297 kts 329°
2026-05-04 13:04 -5.99067 106.42839 9950 ft 300 kts 329°
2026-05-04 13:04 -5.97265 106.41714 10347 ft 312 kts 328°
2026-05-04 13:04 -5.95364 106.40524 10514 ft 331 kts 328°
2026-05-04 13:05 -5.93359 106.39269 10690 ft 348 kts 328°
2026-05-04 13:05 -5.91264 106.37958 11120 ft 354 kts 328°
2026-05-04 13:05 -5.89190 106.36661 11669 ft 357 kts 328°
2026-05-04 13:05 -5.87044 106.35319 12200 ft 360 kts 329°
2026-05-04 13:06 -5.84953 106.34010 12704 ft 364 kts 329°
2026-05-04 13:06 -5.82792 106.32658 13177 ft 369 kts 329°
2026-05-04 13:06 -5.80608 106.31291 13719 ft 371 kts 329°
2026-05-04 13:06 -5.78415 106.29919 14177 ft 374 kts 329°
2026-05-04 13:07 -5.76198 106.28531 14664 ft 376 kts 329°
2026-05-04 13:07 -5.73973 106.27138 15114 ft 378 kts 329°
2026-05-04 13:07 -5.71711 106.25770 15561 ft 381 kts 331°
2026-05-04 13:07 -5.69389 106.24467 16033 ft 383 kts 332°
2026-05-04 13:08 -5.67048 106.23177 16478 ft 386 kts 332°
2026-05-04 13:08 -5.64696 106.21875 16925 ft 388 kts 332°
2026-05-04 13:08 -5.62328 106.20553 17363 ft 391 kts 332°
2026-05-04 13:08 -5.59951 106.19217 17801 ft 393 kts 332°
2026-05-04 13:09 -5.57575 106.17877 18230 ft 396 kts 332°